Vertical_Velocity
0 -0 -0 -0 0 -0 -1 -1 0 0 -0 -2 -2 -2 -1 -1 -1 -1 -1 0 -1 -2 -3 -3 -1 -0 0 1 2 2 1 1 1 -1 -2 -2 -1 0 0 0 1 1 1 -0 -0 1 2 5 4 1 -1 -3 -2 -1 -0 1 1 1 2 4 3 2 2 2 1 1 1 3 12
-1 -0 -0 0 0 -0 -1 -1 -1 -1 -1 -1 -1 -1 -1 -1 -2 -2 -2 -2 -1 -2 -2 -3 -1 -0 0 1 3 3 3 2 1 -0 -2 -3 -2 -1 0 0 1 1 1 -1 -0 2 4 5 3 -0 -3 -4 -2 -2 -1 1 3 3 2 2 2 2 1 1 2 2 2 2 5
-1 -1 -1 -0 -0 -0 -1 -2 -2 -1 -1 -0 -0 -0 -1 -1 -2 -2 -2 -2 -1 -1 -1 -2 -2 -1 -0 0 2 3 4 3 3 1 -1 -3 -3 -2 -0 0 0 0 -0 -1 0 4 6 5 2 -1 -3 -4 -3 -2 -2 -1 2 3 3 1 1 1 1 0 1 2 2 2 2
-0 -1 -1 -1 -0 -0 -0 -1 -1 -1 -1 -1 -1 -1 -1 -1 -1 -2 -2 -2 -2 -1 -1 -1 -2 -2 -1 -0 0 2 3 4 4 2 0 -1 -2 -2 -1 0 0 -1 -1 -2 -1 2 4 4 1 -1 -2 -2 -2 -2 -1 -0 1 2 2 1 1 2 2 0 0 2 3 2 1
-1 -0 -0 -0 0 -0 -0 -0 -0 -1 -1 -2 -3 -2 -2 -1 -1 -2 -2 -3 -2 -1 -1 -1 -1 -1 -1 -0 -0 0 1 2 3 2 1 -0 -1 -1 -1 -1 0 -0 -2 -2 -2 -1 -0 -0 -1 -1 -1 -1 -1 -1 0 1 1 1 1 1 1 2 2 2 1 2 3 2 1
-2 -1 -0 0 0 -0 -0 -0 -0 -1 -1 -2 -2 -2 -1 -1 -1 -1 -2 -2 -2 -2 -1 -1 -1 -2 -2 -1 -1 -0 -0 0 2 3 2 0 -0 -1 -1 -1 -1 -1 -1 -2 -2 -2 -2 -1 -2 -2 -2 -0 -0 0 2 4 3 1 0 -0 0 1 2 3 3 2 2 2 1
-1 -1 -1 -1 -0 -0 -0 -0 -1 -1 -1 -2 -2 -1 -1 -1 -1 -0 -1 -1 -2 -3 -3 -2 -2 -2 -2 -2 -2 -2 -1 0 1 2 3 1 0 0 -0 -1 -2 -2 -2 -2 -2 -2 -1 0 -1 -2 -2 0 1 0 1 4 3 1 -0 -1 -0 2 3 3 3 3 3 3 2
-1 -0 -0 -0 -0 -0 -0 -1 -1 -2 -2 -2 -2 -1 -1 -1 -1 -1 -1 -2 -2 -2 -3 -2 -2 -1 -1 -1 -2 -2 -1 -1 0 1 1 1 1 0 -0 -1 -2 -2 -2 -2 -2 -1 -1 -0 -1 -0 1 1 1 -0 -0 2 2 2 0 -1 -1 1 3 3 3 4 4 3 2
-1 -1 -1 -0 -0 -0 -0 -1 -1 -1 -2 -1 -1 -1 -1 -1 -1 -2 -2 -2 -2 -2 -2 -2 -2 -2 -1 -1 -1 -1 -1 -1 -1 -0 1 1 1 0 -0 -1 -2 -3 -4 -3 -2 -1 -1 -1 -0 1 3 3 1 -0 -1 1 1 1 0 0 0 1 1 3 3 4 3 3 1
-1 -1 -1 -1 -1 -1 -1 -1 -1 -1 -1 -1 -1 -1 -1 -1 -1 -1 -1 -2 -2 -2 -2 -2 -2 -2 -2 -2 -1 -1 -1 -1 -1 -1 0 1 1 1 0 -1 -2 -3 -4 -3 -3 -3 -2 -2 -0 1 2 3 2 0 -0 1 1 0 1 2 1 0 0 1 2 3 2 1 1
-1 -1 -1 -1 -1 -1 -1 -2 -2 -2 -2 -2 -2 -2 -1 -2 -2 -1 -1 -1 -1 -2 -2 -2 -2 -2 -2 -2 -1 -1 -1 -1 -1 -1 -0 0 1 1 1 0 -0 -1 -1 -2 -2 -3 -3 -3 -1 0 2 3 2 1 0 0 -0 0 2 3 2 1 -0 -1 1 1 1 1 0
-1 -1 -0 -0 -1 -1 -2 -2 -2 -2 -2 -2 -2 -2 -2 -2 -2 -2 -1 -1 -1 -1 -2 -2 -1 -1 -1 -1 -1 -1 -1 -1 -1 -1 -1 -1 -0 1 1 1 1 1 0 -0 -0 -1 -2 -2 -1 -1 -0 1 1 1 -1 -2 -2 -0 1 1 1 0 -0 -1 -0 1 1 1 0
-1 -1 -1 -1 -1 -1 -2 -2 -3 -3 -3 -2 -2 -2 -2 -2 -2 -2 -2 -2 -2 -2 -2 -1 -0 0 -0 -1 -1 -1 -1 -1 -1 -1 -1 -0 0 1 1 1 1 1 1 0 1 1 0 -1 0 0 -0 -1 0 0 -1 -3 -1 0 0 -2 -1 -1 -1 -1 -0 0 1 1 0
-1 -1 -1 -1 -1 -1 -2 -3 -3 -3 -3 -2 -2 -2 -2 -3 -2 -2 -1 -2 -2 -2 -1 -1 0 1 1 0 -0 -1 -1 -1 -2 -2 -1 0 1 1 1 1 1 1 1 0 1 1 2 1 1 1 0 -1 -1 -2 -2 -2 1 2 1 -2 -2 -2 -1 -1 0 1 1 1 -0
-1 -1 -1 -1 -1 -1 -2 -3 -3 -3 -3 -2 -2 -2 -2 -3 -2 -2 -1 -1 -1 -1 -0 -0 -0 0 1 1 0 -1 -1 -2 -2 -2 -1 -0 0 1 1 1 0 0 0 0 0 1 2 2 2 2 1 -1 -2 -3 -3 0 3 3 1 -0 -0 -0 -0 0 1 1 1 1 -0
-1 -1 -1 -1 -1 -1 -2 -2 -3 -3 -3 -2 -2 -2 -2 -2 -2 -2 -2 -1 -1 -0 0 1 0 -0 -0 1 1 -0 -1 -2 -2 -1 -1 -1 -1 -1 -1 -1 -1 -1 -0 -1 -1 -1 1 3 3 3 1 -0 -2 -4 -2 3 5 3 1 0 1 1 1 1 2 1 1 1 0
-1 -1 -1 -1 -1 -1 -2 -2 -2 -2 -2 -3 -2 -2 -1 -2 -2 -2 -2 -1 -0 -0 0 1 1 1 -0 -1 -0 -1 -1 -2 -2 -1 -1 -1 -2 -2 -3 -3 -1 -0 0 -1 -2 -3 -2 0 1 1 1 0 -2 -3 -0 7 6 3 0 0 2 2 2 2 2 1 1 1 1
-2 -1 -1 -1 -1 -2 -2 -2 -2 -2 -2 -3 -2 -2 -1 -1 -2 -2 -1 0 1 1 0 -0 1 1 1 -0 -0 -0 -1 -1 -2 -1 -1 -1 -2 -2 -3 -2 -0 1 1 -0 -2 -3 -3 -2 -1 -1 -0 -0 -2 -1 3 10 8 3 0 1 2 2 2 1 1 1 1 1 1
-2 -2 -2 -2 -2 -2 -2 -2 -2 -2 -3 -3 -2 -2 -1 -1 -1 -2 -1 -1 1 1 1 -1 -0 0 1 1 0 0 0 0 -1 -1 -1 -1 -2 -2 -2 -2 0 1 1 0 -1 -3 -4 -3 -2 -1 0 0 0 2 6 12 7 3 1 2 2 1 0 0 0 1 2 3 2
-2 -2 -2 -2 -2 -3 -3 -3 -3 -3 -3 -2 -2 -1 -1 -1 -1 -1 -2 -1 0 1 1 0 -1 -1 -0 -0 -0 -0 0 1 -0 -1 -1 -1 -1 -1 -1 -1 0 1 1 1 -1 -3 -4 -4 -3 -2 0 3 6 8 9 9 4 3 2 2 1 1 0 0 0 1 1 2 2
-2 -2 -2 -2 -3 -3 -3 -3 -2 -2 -2 -1 -1 -1 -1 -1 -2 -1 -1 -0 0 0 0 0 -0 -1 -1 -2 -2 -1 -0 0 0 -0 -1 -1 -1 0 0 0 -0 -0 -0 0 -2 -4 -4 -4 -4 -3 0 9 13 11 7 4 2 2 3 2 1 1 0 1 0 0 0 1 2
-1 -1 -1 -2 -2 -2 -2 -2 -1 -1 -0 0 0 -0 -1 -1 -1 -1 0 1 1 0 0 0 0 -1 -2 -2 -2 -2 -1 -1 0 0 0 0 -0 0 0 0 -1 -1 -1 -2 -4 -5 -6 -7 -7 -3 6 20 14 7 2 1 2 2 2 2 1 0 1 1 1 1 1 0 1
-1 -1 -1 -2 -2 -1 -1 -1 -1 0 1 1 0 -0 -1 -1 -1 -1 0 1 1 1 1 0 -0 -1 -1 -2 -2 -2 -2 -2 -2 -1 0 1 0 -0 -1 -1 -0 -1 -1 -2 -4 -7 -9 -12 -11 0 15 28 11 3 -1 1 1 1 1 0 -0 -0 0 0 1 2 2 -0 1
-1 -0 -0 -1 -1 -1 -1 -1 -0 0 1 1 0 -0 -1 -1 -2 -2 -1 -0 1 1 1 -0 -1 -1 -2 -3 -2 -2 -2 -2 -3 -3 -2 -1 -1 -1 -1 -1 1 1 0 0 -2 -4 -7 -8 -2 12 26 29 10 1 -1 1 2 1 0 -1 -1 -1 -1 -1 2 3 2 0 1
0 0 0 -0 -0 -0 -0 -1 -0 0 1 1 0 -0 -1 -1 -2 -2 -2 -2 -0 1 1 -0 -1 -2 -3 -3 -3 -2 -1 -0 -1 -2 -3 -4 -3 -2 -0 1 2 2 1 2 -1 -4 -4 5 21 33 36 26 8 1 -1 1 2 1 0 -1 -1 -2 -2 -0 2 2 1 0 1
0 -0 -0 0 0 0 -0 -0 0 1 1 0 -0 -0 -1 -1 -2 -2 -3 -3 -2 -1 -0 -1 -2 -2 -2 -2 -2 -2 -2 -1 -0 -0 -1 -3 -5 -3 -1 2 2 2 2 2 -1 -5 -2 14 31 38 33 15 4 -0 -0 1 2 1 -0 -1 -2 -2 -1 1 0 -1 -1 -1 0
-1 -1 -1 0 0 0 0 -0 0 1 0 -0 -1 -1 -1 -1 -2 -2 -2 -3 -2 -2 -1 -1 -1 -1 -1 -1 -1 -2 -2 -1 -1 -0 -0 -1 -2 -2 -0 1 1 2 3 3 -2 -4 5 27 25 20 12 1 -1 -1 -0 1 1 0 -1 -2 -2 -1 0 0 -2 -3 -2 -1 -1
-1 -1 -1 -0 -0 -0 -0 -0 0 0 0 -0 -1 -1 -1 -1 -1 -1 -1 -2 -2 -3 -2 -2 -1 0 0 -0 -1 -2 -2 -2 -1 -1 -1 -1 0 1 1 1 0 2 3 4 -5 0 18 47 20 7 3 -1 -2 -1 -0 1 1 -0 -1 -2 -1 2 3 -2 -4 -3 -1 -0 -1
-1 -1 -1 -1 -1 -1 -1 -0 0 0 -0 -1 -1 -1 -1 -1 0 0 0 -1 -2 -2 -2 -2 -1 -0 0 -0 -1 -2 -3 -2 -1 -1 -1 -1 -0 0 0 1 -0 1 2 2 -5 9 33 56 18 4 1 -1 -2 -1 -0 1 0 1 1 -0 4 6 4 -5 -4 -3 -1 -0 -0
-1 -1 -1 -1 -2 -2 -1 0 0 -0 -1 -1 -1 -1 -1 -1 -0 0 0 -1 -2 -1 0 1 1 1 1 1 -1 -2 -3 -3 -2 -1 -1 0 -0 -1 -1 -0 -1 -0 0 -0 -1 14 33 46 15 3 -0 -2 -2 -1 -0 1 1 2 3 3 10 10 5 -5 -5 -3 -2 0 1
-1 -1 -1 -2 -2 -1 -1 0 -0 -0 -1 -1 -2 -2 -1 -1 -0 1 1 -0 -1 -1 -1 0 1 1 2 2 1 0 -1 -2 -3 -3 -1 1 1 -0 -1 -2 -2 -1 -1 -0 1 15 30 37 14 4 0 -3 -3 -1 0 1 2 4 5 6 14 11 2 -6 -5 -3 -2 0 2
-1 -1 -2 -2 -1 -1 -0 -0 -0 -1 -1 -1 -2 -1 -1 -1 0 1 1 0 -1 -2 -2 -2 -2 -2 -1 -1 -1 -1 -1 -2 -3 -3 -1 2 3 1 -1 -3 -4 -3 -1 0 1 14 30 39 18 6 1 -1 -1 0 1 -2 0 3 6 9 14 9 -0 -5 -4 -3 -2 -2 0
-1 -1 -1 -0 -0 -0 -0 -0 -0 -0 -1 -1 -1 -1 -1 -2 -1 -1 -0 -0 -0 -1 -1 -2 -2 -2 -1 -1 -2 -3 -3 -2 -2 -3 -3 -0 4 4 1 -4 -6 -4 -1 1 3 13 28 42 21 7 1 3 4 3 1 -4 -3 -0 4 10 16 13 5 -1 -2 -2 -3 -3 -2
-1 -1 0 1 1 0 0 1 1 1 0 -1 -1 -1 -1 -2 -2 -2 -2 -1 -0 -0 -0 0 1 1 2 2 1 -1 -2 -3 -2 -3 -4 -3 2 5 4 0 -4 -3 1 1 3 11 23 40 24 9 1 5 7 5 1 -5 -6 -5 -1 6 18 19 15 6 2 -1 -3 -4 -3
-0 0 1 1 1 1 1 1 1 1 0 -1 -2 -2 -2 -1 -1 -1 -2 -1 -0 -1 -1 -0 1 1 2 2 2 0 -1 -3 -4 -4 -4 -4 -1 2 4 3 -1 -1 1 -1 2 9 20 33 23 10 1 5 9 8 3 -4 -6 -7 -5 0 10 15 15 10 5 2 -1 -3 -4
1 1 1 1 1 1 1 0 -1 -1 -1 -2 -3 -3 -3 -2 -1 -0 0 1 0 -1 -2 -1 -0 0 0 -0 -1 -1 -1 -2 -3 -4 -3 -2 -2 -1 1 3 -0 -1 -2 -5 0 8 17 27 23 11 2 3 9 9 6 -1 -3 -5 -4 -2 3 6 7 7 8 8 6 2 -2
1 2 1 1 1 0 -0 -1 -2 -2 -2 -3 -3 -3 -2 -1 -0 1 2 4 1 -2 -4 -3 -1 0 0 -0 -0 0 0 -0 -2 -2 -1 -0 -2 -2 -1 1 -1 -2 -4 -7 0 5 12 24 27 16 4 1 6 8 7 3 0 -2 -3 -1 3 7 9 9 12 14 15 11 6
1 2 2 1 -0 -1 -2 -2 -2 -3 -3 -3 -3 -2 -1 1 1 2 3 5 3 -1 -4 -4 -1 0 0 1 1 1 0 -0 -0 1 2 1 -1 -1 -0 1 -1 -3 -5 -6 -0 2 7 21 29 20 7 3 5 6 5 3 1 -1 -1 2 10 17 21 17 14 14 15 15 13
1 2 2 1 -1 -2 -3 -3 -3 -3 -3 -3 -3 -2 -1 1 3 3 3 2 1 -1 -3 -3 -1 0 1 1 1 1 -0 -1 0 3 4 3 1 1 2 2 0 -2 -3 -4 -1 -0 4 18 25 17 6 6 8 8 6 3 -0 -1 1 8 18 26 30 26 17 11 8 8 8
1 1 1 0 -1 -2 -3 -4 -3 -3 -2 -2 -2 -1 0 2 3 2 -0 -1 -1 -1 -1 -1 0 1 2 2 2 1 -1 -2 0 3 5 5 2 2 2 2 1 -0 -2 -2 -1 -2 1 12 21 11 -1 0 7 12 13 9 4 2 5 10 15 19 23 25 17 9 2 -1 -3
1 0 -0 -1 -1 -2 -3 -4 -4 -3 -2 -0 1 2 3 3 1 -1 -2 -3 -3 -2 -1 0 1 2 2 3 2 1 -0 -2 1 3 5 4 3 2 1 0 0 -0 -1 -1 0 -2 -2 4 19 11 -4 -10 -1 9 15 16 12 10 9 9 4 3 5 10 9 5 -0 -3 -6
Height
1532 1530 1528 1527 1525 1523 1522 1520 1519 1517 1515 1513 1511 1509 1507 1506 1504 1502 1501 1500 1498 1496 1493 1491 1490 1488 1486 1485 1483 1482 1481 1479 1477 1476 1475 1473 1472 1470 1469 1468 1466 1466 1464 1463 1462 1461 1459 1458 1457 1455 1453 1451 1449 1448 1447 1446 1445 1444 1442 1441 1440 1439 1437 1436 1435 1433 1433 1432 1432
1531 1529 1527 1526 1524 1522 1521 1519 1517 1516 1514 1511 1510 1508 1506 1505 1503 1501 1500 1498 1496 1494 1492 1490 1488 1486 1485 1483 1482 1481 1479 1478 1476 1475 1473 1471 1471 1469 1468 1466 1465 1464 1463 1462 1461 1459 1458 1457 1456 1454 1451 1450 1448 1446 1445 1444 1443 1442 1441 1440 1439 1437 1435 1434 1433 1431 1431 1430 1429
1530 1528 1526 1525 1523 1521 1520 1518 1516 1514 1512 1510 1508 1507 1505 1504 1502 1500 1499 1497 1495 1493 1491 1489 1487 1486 1484 1482 1481 1479 1478 1476 1475 1473 1471 1470 1469 1468 1467 1465 1464 1463 1461 1460 1459 1458 1457 1456 1454 1452 1450 1448 1447 1445 1444 1443 1442 1441 1440 1438 1437 1436 1434 1432 1431 1430 1429 1428 1427
1529 1527 1526 1524 1522 1521 1519 1517 1515 1513 1511 1509 1507 1506 1504 1503 1501 1500 1498 1496 1494 1492 1491 1489 1486 1485 1483 1481 1479 1478 1477 1475 1474 1472 1470 1469 1467 1466 1465 1464 1463 1461 1460 1459 1458 1457 1456 1455 1453 1451 1449 1447 1446 1444 1443 1441 1441 1440 1438 1437 1435 1434 1433 1431 1430 1429 1428 1426 1425
1528 1527 1525 1524 1522 1520 1518 1516 1514 1512 1510 1508 1506 1505 1504 1502 1501 1499 1497 1495 1493 1491 1490 1488 1486 1484 1482 1480 1478 1476 1475 1474 1472 1471 1469 1467 1466 1465 1464 1463 1461 1460 1459 1457 1456 1455 1454 1453 1451 1450 1448 1446 1445 1443 1442 1441 1439 1438 1436 1435 1434 1433 1431 1430 1429 1427 1426 1425 1424
1528 1526 1524 1523 1521 1519 1517 1515 1513 1511 1509 1508 1506 1505 1503 1502 1500 1498 1496 1495 1493 1491 1489 1487 1485 1483 1481 1479 1477 1475 1474 1472 1471 1469 1467 1466 1464 1463 1462 1461 1460 1459 1458 1456 1455 1454 1453 1451 1450 1448 1446 1445 1444 1442 1441 1440 1438 1437 1435 1434 1432 1431 1430 1429 1428 1426 1425 1424 1422
1527 1526 1524 1522 1520 1518 1516 1515 1513 1511 1509 1507 1506 1504 1503 1501 1500 1498 1496 1494 1492 1490 1488 1486 1484 1482 1480 1478 1476 1474 1472 1471 1469 1468 1466 1465 1463 1462 1461 1460 1459 1458 1456 1455 1454 1453 1451 1450 1449 1447 1446 1444 1443 1441 1440 1439 1437 1436 1434 1432 1431 1430 1429 1428 1426 1425 1424 1423 1421
1527 1525 1523 1521 1520 1518 1516 1514 1512 1510 1508 1506 1505 1503 1502 1501 1499 1497 1495 1493 1491 1489 1487 1485 1483 1481 1480 1478 1476 1474 1471 1470 1468 1466 1465 1463 1462 1461 1460 1459 1457 1456 1455 1454 1453 1452 1451 1449 1448 1446 1445 1443 1442 1440 1438 1437 1436 1435 1433 1431 1430 1429 1428 1427 1426 1424 1423 1421 1420
1526 1524 1522 1521 1519 1517 1515 1513 1511 1509 1507 1506 1504 1503 1501 1500 1498 1496 1494 1492 1491 1489 1487 1485 1483 1481 1479 1477 1475 1473 1471 1469 1466 1465 1463 1462 1461 1460 1458 1457 1456 1455 1454 1453 1452 1451 1449 1448 1447 1446 1444 1442 1441 1439 1437 1436 1435 1433 1432 1431 1429 1428 1426 1426 1424 1423 1421 1420 1419
1525 1523 1521 1520 1518 1516 1514 1512 1510 1509 1507 1505 1504 1502 1501 1499 1497 1496 1494 1492 1490 1488 1486 1484 1482 1480 1478 1476 1474 1472 1470 1468 1466 1464 1462 1461 1460 1459 1458 1456 1456 1454 1453 1452 1451 1450 1448 1447 1446 1444 1443 1441 1439 1438 1436 1435 1433 1432 1431 1430 1428 1427 1425 1424 1423 1422 1420 1419 1417
1525 1523 1521 1519 1517 1515 1513 1511 1510 1508 1506 1505 1503 1501 1500 1498 1496 1495 1493 1491 1489 1487 1486 1484 1481 1479 1477 1475 1473 1471 1469 1467 1465 1463 1462 1460 1459 1458 1457 1456 1455 1454 1453 1451 1450 1449 1447 1446 1445 1443 1441 1440 1438 1437 1435 1434 1432 1431 1430 1429 1427 1426 1424 1423 1422 1421 1419 1418 1416
1524 1522 1521 1519 1516 1515 1513 1511 1509 1507 1506 1504 1502 1501 1499 1497 1496 1494 1492 1490 1488 1486 1484 1483 1481 1479 1477 1475 1472 1470 1468 1466 1465 1463 1461 1460 1459 1457 1456 1455 1454 1453 1452 1451 1449 1448 1447 1446 1444 1442 1440 1439 1437 1436 1434 1433 1431 1431 1429 1428 1426 1425 1423 1422 1421 1420 1418 1417 1415
1524 1522 1520 1518 1516 1514 1512 1510 1508 1506 1505 1503 1502 1500 1498 1496 1495 1493 1491 1489 1487 1485 1484 1482 1480 1479 1476 1474 1472 1470 1468 1466 1464 1462 1461 1460 1458 1457 1456 1455 1453 1452 1451 1449 1448 1447 1446 1445 1443 1441 1440 1438 1436 1435 1434 1432 1431 1430 1429 1427 1426 1424 1423 1421 1420 1419 1418 1416 1415
1523 1521 1519 1517 1515 1513 1511 1510 1508 1506 1504 1503 1501 1499 1497 1496 1494 1492 1490 1488 1486 1485 1483 1481 1480 1478 1476 1474 1471 1469 1467 1466 1464 1462 1461 1459 1458 1457 1455 1454 1452 1451 1450 1448 1447 1446 1445 1444 1442 1441 1439 1437 1436 1434 1433 1431 1431 1430 1429 1427 1425 1424 1422 1421 1420 1419 1417 1416 1414
1522 1521 1519 1517 1515 1513 1511 1509 1507 1506 1504 1502 1501 1499 1497 1495 1493 1491 1490 1488 1486 1484 1483 1481 1479 1477 1475 1473 1471 1469 1467 1465 1463 1462 1460 1459 1457 1456 1455 1453 1452 1450 1449 1447 1446 1445 1444 1443 1441 1440 1438 1437 1435 1433 1432 1431 1431 1430 1428 1426 1425 1424 1422 1421 1420 1418 1417 1415 1414
1522 1520 1518 1516 1514 1512 1511 1509 1507 1505 1503 1501 1500 1498 1496 1495 1493 1491 1489 1487 1486 1484 1482 1481 1479 1476 1475 1473 1471 1468 1466 1465 1463 1461 1460 1458 1457 1455 1454 1452 1451 1449 1448 1446 1445 1443 1442 1441 1440 1439 1438 1436 1435 1432 1431 1430 1430 1429 1427 1426 1425 1423 1422 1421 1419 1418 1416 1415 1413
1521 1519 1517 1516 1514 1512 1510 1508 1506 1505 1503 1501 1499 1498 1496 1494 1492 1490 1489 1487 1485 1483 1482 1480 1478 1476 1474 1472 1470 1468 1466 1464 1463 1461 1460 1458 1456 1455 1453 1451 1450 1448 1447 1445 1444 1442 1441 1440 1439 1438 1436 1435 1433 1431 1430 1430 1430 1428 1427 1426 1424 1423 1422 1421 1419 1418 1416 1415 1413
1521 1519 1517 1515 1513 1511 1510 1508 1506 1504 1502 1501 1499 1497 1496 1494 1492 1490 1488 1487 1485 1483 1481 1479 1478 1476 1474 1471 1469 1467 1466 1464 1462 1461 1459 1457 1456 1454 1452 1451 1449 1448 1446 1445 1443 1441 1440 1438 1437 1436 1435 1433 1431 1430 1429 1429 1429 1428 1426 1425 1424 1423 1421 1420 1419 1417 1416 1415 1413
1520 1518 1516 1515 1513 1511 1509 1507 1506 1504 1502 1500 1499 1497 1495 1494 1491 1490 1488 1486 1485 1483 1481 1479 1477 1475 1473 1471 1469 1467 1466 1464 1462 1460 1458 1457 1455 1453 1452 1450 1448 1447 1445 1444 1442 1440 1439 1437 1436 1434 1432 1430 1429 1428 1428 1428 1428 1427 1426 1425 1423 1422 1421 1420 1418 1417 1416 1414 1413
1519 1518 1516 1514 1512 1510 1508 1506 1505 1503 1501 1500 1498 1497 1495 1493 1491 1489 1487 1486 1484 1482 1481 1479 1476 1475 1473 1471 1469 1467 1465 1463 1461 1459 1458 1456 1454 1453 1451 1450 1448 1446 1444 1443 1441 1439 1438 1436 1435 1433 1430 1428 1427 1427 1427 1427 1427 1426 1425 1424 1423 1422 1421 1419 1418 1416 1415 1414 1412
1519 1517 1515 1513 1511 1510 1508 1506 1505 1503 1501 1500 1498 1496 1495 1492 1491 1489 1487 1486 1484 1482 1480 1478 1476 1474 1472 1470 1468 1466 1465 1463 1461 1459 1457 1456 1454 1452 1451 1449 1447 1445 1443 1442 1440 1438 1437 1436 1434 1431 1429 1428 1428 1427 1427 1426 1426 1426 1425 1424 1422 1421 1420 1419 1417 1416 1415 1413 1412
1518 1516 1515 1513 1511 1509 1507 1506 1504 1503 1501 1500 1498 1496 1494 1492 1490 1489 1487 1485 1483 1481 1480 1478 1476 1474 1472 1470 1468 1466 1464 1463 1461 1459 1457 1456 1454 1452 1451 1449 1447 1445 1443 1441 1439 1437 1436 1434 1432 1430 1429 1429 1428 1427 1426 1426 1426 1425 1424 1423 1422 1421 1420 1418 1417 1416 1415 1413 1412
1518 1516 1514 1512 1510 1509 1507 1506 1504 1503 1501 1500 1498 1496 1494 1492 1490 1488 1486 1485 1483 1481 1479 1477 1475 1473 1471 1470 1468 1466 1464 1462 1461 1459 1457 1455 1453 1452 1450 1448 1446 1445 1443 1441 1439 1437 1435 1433 1431 1429 1430 1430 1428 1427 1426 1426 1425 1424 1424 1422 1421 1420 1419 1418 1417 1416 1414 1413 1411
1517 1515 1513 1511 1510 1508 1506 1505 1504 1502 1501 1499 1497 1495 1493 1491 1490 1488 1486 1484 1482 1481 1478 1476 1475 1473 1471 1469 1468 1466 1464 1462 1460 1458 1456 1455 1453 1451 1450 1448 1446 1445 1443 1441 1439 1437 1436 1433 1430 1429 1429 1429 1427 1426 1426 1425 1425 1424 1423 1422 1421 1420 1419 1417 1416 1416 1414 1413 1411
1516 1514 1512 1511 1509 1507 1506 1504 1503 1501 1500 1498 1497 1495 1493 1491 1489 1487 1485 1483 1482 1480 1478 1476 1474 1472 1471 1469 1467 1466 1464 1462 1460 1458 1456 1454 1453 1451 1449 1448 1446 1444 1442 1440 1439 1437 1436 1432 1430 1428 1427 1426 1426 1425 1425 1425 1424 1423 1423 1421 1421 1419 1418 1417 1416 1415 1414 1412 1411
1516 1513 1511 1510 1508 1507 1505 1504 1502 1501 1500 1498 1496 1494 1492 1490 1488 1486 1485 1483 1481 1479 1477 1476 1474 1472 1470 1469 1467 1466 1464 1462 1460 1458 1456 1454 1452 1451 1449 1448 1446 1444 1442 1440 1439 1437 1434 1431 1428 1426 1424 1424 1424 1424 1424 1424 1424 1423 1422 1421 1420 1419 1418 1417 1416 1415 1414 1412 1411
1515 1512 1511 1509 1508 1506 1505 1503 1502 1500 1499 1497 1495 1493 1491 1490 1488 1486 1484 1482 1481 1479 1477 1475 1473 1471 1470 1468 1467 1465 1463 1462 1460 1458 1456 1454 1452 1451 1449 1447 1446 1443 1441 1440 1438 1436 1433 1431 1427 1423 1422 1422 1423 1424 1424 1424 1423 1423 1422 1421 1420 1419 1419 1418 1417 1415 1414 1412 1411
1514 1512 1510 1509 1507 1505 1504 1502 1501 1499 1498 1496 1494 1492 1491 1489 1487 1485 1484 1482 1480 1478 1476 1475 1473 1471 1470 1468 1466 1465 1463 1461 1460 1458 1456 1454 1453 1451 1449 1447 1445 1443 1441 1440 1438 1436 1434 1432 1427 1424 1423 1423 1423 1424 1424 1424 1423 1423 1422 1421 1421 1420 1419 1418 1417 1416 1414 1413 1411
1513 1511 1510 1508 1506 1505 1503 1502 1500 1499 1497 1495 1493 1491 1490 1488 1486 1485 1483 1481 1480 1478 1476 1475 1473 1471 1470 1468 1466 1464 1463 1461 1460 1458 1456 1454 1453 1451 1449 1447 1445 1443 1441 1439 1437 1436 1434 1432 1428 1426 1425 1424 1424 1424 1424 1424 1423 1423 1422 1421 1421 1420 1420 1418 1417 1416 1415 1413 1412
1512 1511 1509 1507 1506 1504 1503 1501 1500 1498 1496 1494 1492 1490 1488 1487 1485 1484 1482 1481 1479 1478 1476 1475 1473 1471 1469 1467 1466 1464 1463 1461 1460 1458 1456 1454 1453 1451 1449 1447 1445 1443 1441 1439 1437 1436 1434 1432 1429 1427 1426 1425 1425 1424 1424 1424 1423 1423 1422 1421 1421 1421 1420 1419 1417 1416 1415 1414 1413
1512 1510 1508 1506 1505 1504 1502 1501 1499 1497 1495 1493 1491 1489 1488 1486 1485 1483 1482 1480 1479 1477 1476 1474 1472 1471 1469 1467 1466 1464 1463 1461 1459 1457 1456 1454 1453 1451 1449 1447 1445 1443 1441 1439 1437 1436 1434 1431 1429 1427 1427 1426 1425 1425 1425 1424 1424 1423 1422 1422 1421 1421 1420 1419 1418 1416 1415 1414 1413
1511 1510 1508 1506 1505 1503 1502 1500 1498 1496 1494 1492 1491 1489 1487 1486 1484 1482 1481 1480 1478 1476 1475 1473 1471 1470 1468 1467 1465 1464 1462 1461 1459 1457 1456 1454 1453 1451 1450 1447 1445 1443 1441 1439 1438 1436 1434 1431 1429 1427 1427 1426 1426 1426 1425 1425 1424 1423 1422 1422 1422 1421 1420 1419 1418 1417 1416 1415 1414
1511 1509 1507 1506 1504 1503 1501 1499 1497 1496 1494 1492 1490 1488 1486 1485 1483 1481 1480 1479 1477 1476 1474 1473 1471 1470 1468 1466 1465 1464 1462 1461 1459 1457 1456 1454 1453 1451 1450 1448 1446 1443 1441 1440 1438 1436 1434 1431 1429 1427 1427 1427 1426 1426 1426 1425 1424 1424 1423 1422 1422 1421 1421 1419 1418 1418 1416 1416 1415
1510 1508 1507 1506 1504 1502 1501 1499 1497 1495 1493 1491 1490 1488 1486 1484 1482 1481 1479 1478 1477 1476 1474 1472 1471 1470 1468 1467 1465 1464 1462 1460 1459 1457 1456 1454 1453 1451 1450 1449 1446 1444 1442 1441 1438 1436 1434 1431 1429 1427 1427 1427 1427 1426 1426 1425 1425 1424 1423 1423 1423 1422 1421 1420 1419 1418 1417 1416 1416
1510 1508 1507 1505 1504 1502 1500 1498 1496 1495 1493 1491 1489 1487 1486 1484 1482 1481 1479 1477 1476 1475 1473 1472 1471 1469 1468 1466 1465 1464 1462 1461 1459 1457 1456 1455 1453 1451 1450 1449 1447 1445 1443 1441 1439 1437 1434 1432 1429 1428 1427 1427 1427 1427 1426 1426 1426 1425 1424 1424 1423 1423 1422 1421 1420 1419 1418 1417 1416
1510 1508 1507 1505 1503 1502 1500 1498 1496 1495 1493 1491 1489 1487 1485 1483 1482 1480 1479 1477 1476 1475 1473 1471 1470 1469 1467 1466 1465 1463 1462 1461 1459 1458 1456 1456 1454 1452 1450 1449 1447 1446 1444 1441 1440 1437 1435 1433 1430 1428 1428 1428 1428 1427 1427 1426 1426 1426 1425 1425 1424 1424 1423 1422 1421 1421 1419 1418 1417
1510 1508 1506 1505 1503 1501 1500 1498 1496 1494 1492 1491 1489 1487 1485 1483 1481 1480 1479 1477 1476 1474 1473 1471 1470 1468 1467 1466 1465 1463 1462 1461 1460 1458 1457 1456 1455 1453 1451 1450 1448 1446 1444 1442 1441 1439 1437 1435 1432 1430 1429 1429 1428 1428 1428 1427 1427 1426 1426 1425 1425 1424 1424 1423 1422 1421 1420 1419 1418
1509 1508 1506 1505 1503 1501 1500 1498 1496 1494 1492 1490 1489 1487 1485 1483 1482 1481 1479 1478 1476 1474 1472 1471 1470 1468 1467 1466 1465 1463 1462 1461 1460 1459 1458 1457 1455 1454 1452 1451 1449 1447 1445 1443 1442 1440 1438 1436 1433 1431 1429 1429 1429 1429 1429 1428 1428 1427 1426 1426 1426 1425 1425 1423 1422 1421 1421 1420 1419
1509 1508 1506 1505 1503 1501 1500 1498 1496 1494 1492 1490 1488 1486 1485 1484 1482 1481 1480 1478 1476 1475 1473 1471 1470 1468 1467 1466 1465 1463 1462 1461 1460 1459 1458 1457 1456 1454 1453 1451 1450 1448 1446 1445 1443 1441 1440 1437 1435 1432 1430 1430 1430 1430 1429 1429 1429 1428 1427 1427 1426 1426 1426 1424 1423 1421 1421 1420 1420
1509 1507 1506 1505 1503 1501 1500 1498 1496 1494 1492 1490 1488 1487 1485 1484 1483 1481 1480 1478 1477 1475 1473 1471 1470 1468 1467 1466 1465 1464 1462 1461 1460 1459 1459 1457 1456 1455 1454 1452 1451 1449 1447 1446 1445 1443 1441 1439 1436 1434 1432 1431 1430 1430 1430 1429 1429 1429 1428 1427 1427 1426 1426 1425 1423 1422 1421 1421 1420
1509 1507 1506 1505 1503 1501 1500 1498 1496 1494 1492 1491 1489 1487 1486 1485 1483 1482 1480 1478 1477 1475 1473 1471 1470 1469 1468 1466 1465 1464 1462 1461 1460 1460 1459 1458 1456 1455 1454 1453 1451 1450 1448 1447 1446 1444 1442 1440 1438 1436 1434 1432 1431 1430 1430 1430 1430 1429 1429 1428 1427 1426 1426 1425 1424 1423 1423 1422 1421